When you browse on this site, cookies collect data to enhance your experience and personalize the content and advertising you see.
Visit our Privacy Policy to learn more. By continuing to use the site, you agree to this use of cookies and data.
  • In United Kingdom
  • List of Countries
  • For 7 days
  • Water Temperature
  • Satellite Maps
  • Weather Map
  • Weather Widgets
  • user-avatar
    Login

    Hourly Weather Starozhilsk

    Today, 25 April, Thursday

    Time Temperature Precipitation Wind Pressure Humidity
    00:00 +11°C° 0 mm 1 mps 757 mmHg 78%
    01:00 +11°C° 0 mm 1 mps 757 mmHg 81%
    02:00 +10°C° 0 mm 1 mps 757 mmHg 84%
    03:00 +9°C° 0 mm 1 mps 757 mmHg 88%
    04:00 +10°C° 0 mm 1 mps 757 mmHg 86%
    05:00 +10°C° 0 mm 1 mps 757 mmHg 85%
    06:00 +10°C° 0 mm 1 mps 757 mmHg 83%
    07:00 +12°C° 0 mm 2 mps 757 mmHg 75%
    08:00 +14°C° 0 mm 2 mps 757 mmHg 67%
    09:00 +16°C° 0 mm 2 mps 757 mmHg 59%
    10:00 +18°C° 0 mm 3 mps 757 mmHg 54%
    11:00 +19°C° 0 mm 3 mps 757 mmHg 50%
    12:00 +20°C° 0 mm 4 mps 757 mmHg 46%
    13:00 +19°C° 0.2 mm 4 mps 757 mmHg 47%
    14:00 +19°C° 0.2 mm 4 mps 757 mmHg 49%
    15:00 +19°C° 0.2 mm 4 mps 756 mmHg 50%
    16:00 +17°C° 0.2 mm 4 mps 757 mmHg 56%
    17:00 +16°C° 0.2 mm 3 mps 757 mmHg 62%
    18:00 +14°C° 0.2 mm 3 mps 757 mmHg 68%
    19:00 +13°C° 0 mm 2 mps 757 mmHg 71%
    20:00 +12°C° 0 mm 2 mps 758 mmHg 74%
    21:00 +10°C° 0 mm 2 mps 758 mmHg 76%
    22:00 +10°C° 0 mm 2 mps 758 mmHg 75%
    23:00 +9°C° 0 mm 2 mps 758 mmHg 74%

    Tomorrow, 26 April, Friday

    Time Temperature Precipitation Wind Pressure Humidity
    00:00 +9°C° 0 mm 2 mps 758 mmHg 73%
    01:00 +7°C° 0 mm 2 mps 758 mmHg 76%
    02:00 +6°C° 0 mm 2 mps 759 mmHg 79%
    03:00 +5°C° 0 mm 2 mps 759 mmHg 82%
    04:00 +5°C° 0 mm 2 mps 759 mmHg 79%
    05:00 +5°C° 0 mm 2 mps 759 mmHg 76%
    06:00 +5°C° 0 mm 2 mps 759 mmHg 73%
    07:00 +7°C° 0 mm 2 mps 759 mmHg 65%
    08:00 +8°C° 0 mm 3 mps 759 mmHg 57%
    09:00 +10°C° 0 mm 3 mps 760 mmHg 49%
    10:00 +11°C° 0 mm 3 mps 759 mmHg 47%
    11:00 +11°C° 0 mm 3 mps 759 mmHg 46%
    12:00 +12°C° 0 mm 3 mps 759 mmHg 44%
    13:00 +13°C° 0 mm 3 mps 759 mmHg 41%
    14:00 +13°C° 0 mm 3 mps 759 mmHg 39%
    15:00 +13°C° 0 mm 3 mps 759 mmHg 37%
    16:00 +14°C° 0 mm 2 mps 759 mmHg 40%
    17:00 +13°C° 0 mm 2 mps 759 mmHg 42%
    18:00 +12°C° 0 mm 1 mps 758 mmHg 45%
    19:00 +11°C° 0 mm 1 mps 759 mmHg 49%
    20:00 +9°C° 0 mm 1 mps 759 mmHg 54%
    21:00 +6°C° 0 mm 0 mps 759 mmHg 58%
    22:00 +6°C° 0 mm 0 mps 758 mmHg 59%
    23:00 +5°C° 0 mm 0 mps 758 mmHg 60%

    Day after tomorrow, 27 April, Saturday

    Time Temperature Precipitation Wind Pressure Humidity
    00:00 +6°C° 0 mm 1 mps 758 mmHg 61%
    01:00 +6°C° 0 mm 1 mps 758 mmHg 62%
    02:00 +5°C° 0 mm 1 mps 758 mmHg 64%
    03:00 +4°C° 0 mm 2 mps 757 mmHg 66%
    04:00 +5°C° 0 mm 2 mps 757 mmHg 64%
    05:00 +5°C° 0 mm 2 mps 757 mmHg 63%
    06:00 +6°C° 0 mm 2 mps 756 mmHg 62%
    07:00 +8°C° 0 mm 3 mps 756 mmHg 56%
    08:00 +11°C° 0 mm 3 mps 755 mmHg 49%
    09:00 +14°C° 0 mm 4 mps 755 mmHg 43%
    10:00 +14°C° 0 mm 4 mps 754 mmHg 45%
    11:00 +15°C° 0 mm 4 mps 754 mmHg 47%
    12:00 +16°C° 0 mm 5 mps 753 mmHg 48%
    13:00 +15°C° 0.5 mm 4 mps 752 mmHg 55%
    14:00 +14°C° 0.5 mm 4 mps 752 mmHg 62%
    15:00 +14°C° 0.5 mm 3 mps 751 mmHg 69%
    16:00 +14°C° 0.2 mm 3 mps 750 mmHg 69%
    17:00 +14°C° 0.2 mm 3 mps 750 mmHg 70%
    18:00 +14°C° 0.2 mm 3 mps 749 mmHg 70%
    19:00 +13°C° 1 mm 3 mps 748 mmHg 74%
    20:00 +13°C° 1 mm 3 mps 748 mmHg 79%
    21:00 +12°C° 1 mm 3 mps 747 mmHg 83%
    22:00 +12°C° 0.1 mm 3 mps 746 mmHg 83%
    23:00 +11°C° 0.1 mm 3 mps 746 mmHg 83%

    28 April, Sunday

    Time Temperature Precipitation Wind Pressure Humidity
    00:00 +11°C° 0.1 mm 3 mps 745 mmHg 83%
    01:00 +11°C° 0.5 mm 3 mps 745 mmHg 86%
    02:00 +10°C° 0.5 mm 3 mps 745 mmHg 88%
    03:00 +10°C° 0.5 mm 4 mps 745 mmHg 90%
    04:00 +8°C° 0.7 mm 4 mps 746 mmHg 89%
    05:00 +7°C° 0.7 mm 4 mps 746 mmHg 88%
    06:00 +5°C° 0.7 mm 4 mps 746 mmHg 87%
    07:00 +5°C° 0.2 mm 4 mps 747 mmHg 84%
    08:00 +5°C° 0.2 mm 4 mps 747 mmHg 82%
    09:00 +4°C° 0.2 mm 4 mps 748 mmHg 79%
    10:00 +5°C° 0 mm 4 mps 749 mmHg 76%
    11:00 +5°C° 0 mm 4 mps 749 mmHg 72%
    12:00 +5°C° 0 mm 4 mps 750 mmHg 69%
    13:00 +6°C° 0.1 mm 4 mps 750 mmHg 65%
    14:00 +6°C° 0.1 mm 4 mps 751 mmHg 60%
    15:00 +6°C° 0.1 mm 5 mps 751 mmHg 56%
    16:00 +6°C° 0.1 mm 4 mps 751 mmHg 55%
    17:00 +5°C° 0.1 mm 4 mps 752 mmHg 55%
    18:00 +5°C° 0.1 mm 4 mps 752 mmHg 55%
    19:00 +4°C° 0 mm 4 mps 753 mmHg 58%
    20:00 +3°C° 0 mm 3 mps 753 mmHg 61%
    21:00 +1°C° 0 mm 3 mps 754 mmHg 64%
    22:00 +1°C° 0 mm 3 mps 755 mmHg 64%
    23:00 0°C° 0 mm 3 mps 755 mmHg 63%

    29 April, Monday

    Time Temperature Precipitation Wind Pressure Humidity
    00:00 -1°C° 0 mm 3 mps 756 mmHg 63%
    01:00 -1°C° 0 mm 3 mps 756 mmHg 64%
    02:00 -2°C° 0 mm 3 mps 756 mmHg 65%
    03:00 -4°C° 0 mm 3 mps 757 mmHg 66%
    04:00 -2°C° 0 mm 3 mps 757 mmHg 63%
    05:00 -3°C° 0 mm 4 mps 758 mmHg 60%
    06:00 -3°C° 0 mm 4 mps 758 mmHg 56%
    07:00 -2°C° 0 mm 4 mps 758 mmHg 50%
    08:00 -1°C° 0 mm 4 mps 758 mmHg 44%
    09:00 0°C° 0 mm 4 mps 759 mmHg 38%
    10:00 +1°C° 0 mm 4 mps 759 mmHg 36%
    11:00 +3°C° 0 mm 4 mps 759 mmHg 34%
    12:00 +4°C° 0 mm 4 mps 759 mmHg 32%
    13:00 +4°C° 0 mm 4 mps 759 mmHg 32%
    14:00 +4°C° 0 mm 4 mps 759 mmHg 32%
    15:00 +4°C° 0 mm 4 mps 759 mmHg 33%
    16:00 +4°C° 0 mm 4 mps 759 mmHg 35%
    17:00 +3°C° 0 mm 3 mps 759 mmHg 38%
    18:00 +3°C° 0 mm 3 mps 759 mmHg 40%
    19:00 +2°C° 0 mm 2 mps 759 mmHg 47%
    20:00 +1°C° 0 mm 2 mps 759 mmHg 53%
    21:00 0°C° 0 mm 1 mps 760 mmHg 59%
    22:00 0°C° 0 mm 1 mps 760 mmHg 60%
    23:00 0°C° 0 mm 1 mps 760 mmHg 61%

    30 April, Tuesday

    Time Temperature Precipitation Wind Pressure Humidity
    00:00 -1°C° 0 mm 1 mps 760 mmHg 62%
    01:00 -1°C° 0 mm 1 mps 760 mmHg 62%
    02:00 -1°C° 0 mm 1 mps 760 mmHg 62%
    03:00 -1°C° 0 mm 1 mps 760 mmHg 62%
    04:00 0°C° 0 mm 1 mps 761 mmHg 58%
    05:00 0°C° 0 mm 1 mps 761 mmHg 55%
    06:00 -1°C° 0 mm 2 mps 761 mmHg 51%
    07:00 +2°C° 0 mm 2 mps 760 mmHg 46%
    08:00 +3°C° 0 mm 2 mps 760 mmHg 41%
    09:00 +4°C° 0 mm 3 mps 760 mmHg 36%
    10:00 +5°C° 0 mm 3 mps 760 mmHg 35%
    11:00 +7°C° 0 mm 3 mps 759 mmHg 34%
    12:00 +7°C° 0 mm 4 mps 759 mmHg 33%
    13:00 +7°C° 0 mm 4 mps 759 mmHg 34%
    14:00 +7°C° 0 mm 4 mps 758 mmHg 34%
    15:00 +8°C° 0 mm 4 mps 758 mmHg 35%
    16:00 +8°C° 0 mm 3 mps 758 mmHg 40%
    17:00 +7°C° 0 mm 3 mps 757 mmHg 46%
    18:00 +7°C° 0 mm 2 mps 757 mmHg 51%
    19:00 +5°C° 0 mm 2 mps 757 mmHg 57%
    20:00 +3°C° 0 mm 2 mps 757 mmHg 62%
    21:00 +2°C° 0 mm 2 mps 757 mmHg 68%
    22:00 +2°C° 0 mm 2 mps 757 mmHg 66%
    23:00 +3°C° 0 mm 2 mps 757 mmHg 65%
    Show more